• In Hungary
  • List of Countries
  • For 7 days
  • Water Temperature
  • Satellite Maps
  • Weather Map
  • News
  • Weather Widgets
  • user-avatar
    Login

    Hourly Weather Olchowiec

    Today, 23 May, Wednesday

    Time Temperature Precipitation Wind Pressure Humidity
    00:00 +13°C° 0 mm 1 mps 722 mmHg 92%
    01:00 +13°C° 0 mm 1 mps 722 mmHg 92%
    02:00 +13°C° 0 mm 1 mps 722 mmHg 92%
    03:00 +13°C° 0 mm 1 mps 722 mmHg 92%
    04:00 +13°C° 0 mm 1 mps 722 mmHg 92%
    05:00 +12°C° 0 mm 1 mps 722 mmHg 92%
    06:00 +15°C° 0 mm 1 mps 723 mmHg 86%
    07:00 +18°C° 0 mm 1 mps 723 mmHg 79%
    08:00 +20°C° 0 mm 1 mps 723 mmHg 73%
    09:00 +21°C° 0.3 mm 1 mps 723 mmHg 71%
    10:00 +22°C° 0.3 mm 1 mps 724 mmHg 69%
    11:00 +23°C° 0.3 mm 1 mps 724 mmHg 66%
    12:00 +24°C° 0.4 mm 1 mps 724 mmHg 66%
    13:00 +24°C° 0.4 mm 1 mps 723 mmHg 65%
    14:00 +24°C° 0.4 mm 1 mps 723 mmHg 64%
    15:00 +24°C° 0.7 mm 1 mps 723 mmHg 68%
    16:00 +23°C° 0.7 mm 1 mps 723 mmHg 72%
    17:00 +23°C° 0.7 mm 1 mps 723 mmHg 76%
    18:00 +21°C° 0.3 mm 1 mps 723 mmHg 81%
    19:00 +20°C° 0.3 mm 1 mps 722 mmHg 85%
    20:00 +19°C° 0.3 mm 1 mps 722 mmHg 90%
    21:00 +18°C° 0.1 mm 1 mps 722 mmHg 91%
    22:00 +16°C° 0.1 mm 1 mps 722 mmHg 93%
    23:00 +15°C° 0.1 mm 1 mps 722 mmHg 94%

    Tomorrow, 24 May, Thursday

    Time Temperature Precipitation Wind Pressure Humidity
    00:00 +15°C° 0 mm 1 mps 723 mmHg 94%
    01:00 +15°C° 0 mm 1 mps 723 mmHg 94%
    02:00 +14°C° 0 mm 1 mps 723 mmHg 95%
    03:00 +14°C° 0 mm 1 mps 723 mmHg 95%
    04:00 +14°C° 0 mm 1 mps 723 mmHg 96%
    05:00 +13°C° 0 mm 1 mps 722 mmHg 96%
    06:00 +15°C° 0 mm 2 mps 723 mmHg 92%
    07:00 +16°C° 0 mm 2 mps 723 mmHg 89%
    08:00 +17°C° 0 mm 2 mps 723 mmHg 85%
    09:00 +19°C° 0 mm 3 mps 723 mmHg 78%
    10:00 +20°C° 0 mm 3 mps 723 mmHg 70%
    11:00 +22°C° 0 mm 3 mps 724 mmHg 62%
    12:00 +22°C° 0.3 mm 4 mps 723 mmHg 62%
    13:00 +23°C° 0.3 mm 4 mps 723 mmHg 62%
    14:00 +23°C° 0.3 mm 4 mps 723 mmHg 62%
    15:00 +22°C° 0.4 mm 4 mps 723 mmHg 65%
    16:00 +22°C° 0.4 mm 4 mps 723 mmHg 68%
    17:00 +21°C° 0.4 mm 4 mps 723 mmHg 72%
    18:00 +20°C° 0.3 mm 4 mps 722 mmHg 77%
    19:00 +18°C° 0.3 mm 3 mps 722 mmHg 82%
    20:00 +17°C° 0.3 mm 3 mps 722 mmHg 87%
    21:00 +16°C° 0 mm 2 mps 722 mmHg 89%
    22:00 +15°C° 0 mm 2 mps 722 mmHg 91%
    23:00 +14°C° 0 mm 2 mps 723 mmHg 93%

    Day after tomorrow, 25 May, Friday

    Time Temperature Precipitation Wind Pressure Humidity
    00:00 +14°C° 0 mm 2 mps 722 mmHg 93%
    01:00 +13°C° 0 mm 2 mps 722 mmHg 94%
    02:00 +13°C° 0 mm 2 mps 722 mmHg 94%
    03:00 +12°C° 0 mm 1 mps 722 mmHg 95%
    04:00 +12°C° 0 mm 1 mps 722 mmHg 95%
    05:00 +12°C° 0 mm 1 mps 722 mmHg 95%
    06:00 +14°C° 0 mm 1 mps 722 mmHg 90%
    07:00 +15°C° 0 mm 2 mps 723 mmHg 84%
    08:00 +17°C° 0 mm 2 mps 723 mmHg 79%
    09:00 +18°C° 0.2 mm 2 mps 723 mmHg 75%
    10:00 +20°C° 0.2 mm 3 mps 723 mmHg 71%
    11:00 +21°C° 0.2 mm 3 mps 723 mmHg 67%
    12:00 +21°C° 0.5 mm 3 mps 723 mmHg 67%
    13:00 +22°C° 0.5 mm 3 mps 723 mmHg 67%
    14:00 +22°C° 0.5 mm 3 mps 723 mmHg 67%
    15:00 +22°C° 0.6 mm 3 mps 723 mmHg 69%
    16:00 +22°C° 0.6 mm 3 mps 723 mmHg 71%
    17:00 +21°C° 0.6 mm 3 mps 723 mmHg 74%
    18:00 +20°C° 0.4 mm 2 mps 723 mmHg 79%
    19:00 +19°C° 0.4 mm 2 mps 723 mmHg 84%
    20:00 +17°C° 0.4 mm 2 mps 723 mmHg 89%
    21:00 +17°C° 0 mm 2 mps 723 mmHg 90%
    22:00 +16°C° 0 mm 2 mps 723 mmHg 92%
    23:00 +15°C° 0 mm 1 mps 724 mmHg 93%

    26 May, Saturday

    Time Temperature Precipitation Wind Pressure Humidity
    00:00 +15°C° 0 mm 1 mps 724 mmHg 93%
    01:00 +14°C° 0 mm 1 mps 724 mmHg 94%
    02:00 +14°C° 0 mm 1 mps 724 mmHg 94%
    03:00 +14°C° 0 mm 1 mps 724 mmHg 94%
    04:00 +14°C° 0 mm 1 mps 724 mmHg 93%
    05:00 +13°C° 0 mm 1 mps 724 mmHg 93%
    06:00 +16°C° 0 mm 1 mps 724 mmHg 88%
    07:00 +19°C° 0 mm 1 mps 725 mmHg 82%
    08:00 +21°C° 0 mm 1 mps 725 mmHg 77%
    09:00 +23°C° 0 mm 1 mps 725 mmHg 70%
    10:00 +24°C° 0 mm 2 mps 725 mmHg 64%
    11:00 +26°C° 0 mm 2 mps 726 mmHg 57%
    12:00 +26°C° 0.9 mm 2 mps 725 mmHg 61%
    13:00 +26°C° 0.9 mm 2 mps 725 mmHg 65%
    14:00 +25°C° 0.9 mm 3 mps 725 mmHg 69%
    15:00 +25°C° 0.8 mm 3 mps 725 mmHg 70%
    16:00 +25°C° 0.8 mm 2 mps 725 mmHg 72%
    17:00 +24°C° 0.8 mm 2 mps 724 mmHg 74%
    18:00 +23°C° 0.3 mm 2 mps 724 mmHg 79%
    19:00 +21°C° 0.3 mm 1 mps 724 mmHg 83%
    20:00 +20°C° 0.3 mm 1 mps 724 mmHg 88%
    21:00 +19°C° 0 mm 1 mps 724 mmHg 89%
    22:00 +19°C° 0 mm 1 mps 724 mmHg 90%
    23:00 +18°C° 0 mm 1 mps 724 mmHg 91%

    27 May, Sunday

    Time Temperature Precipitation Wind Pressure Humidity
    00:00 +18°C° 0 mm 1 mps 724 mmHg 92%
    01:00 +16°C° 0 mm 1 mps 724 mmHg 92%
    02:00 +16°C° 0 mm 1 mps 724 mmHg 92%
    03:00 +16°C° 0.3 mm 1 mps 724 mmHg 93%
    04:00 +15°C° 0.3 mm 1 mps 724 mmHg 93%
    05:00 +15°C° 0.3 mm 1 mps 724 mmHg 94%
    06:00 +18°C° 0.3 mm 1 mps 724 mmHg 91%
    07:00 +19°C° 0.3 mm 1 mps 725 mmHg 89%
    08:00 +20°C° 0.3 mm 1 mps 725 mmHg 87%
    09:00 +21°C° 0.8 mm 1 mps 725 mmHg 82%
    10:00 +23°C° 0.8 mm 2 mps 725 mmHg 77%
    11:00 +24°C° 0.8 mm 2 mps 725 mmHg 72%
    12:00 +24°C° 0.5 mm 2 mps 725 mmHg 71%
    13:00 +25°C° 0.5 mm 2 mps 725 mmHg 69%
    14:00 +25°C° 0.5 mm 2 mps 724 mmHg 68%
    15:00 +25°C° 0.8 mm 2 mps 724 mmHg 70%
    16:00 +24°C° 0.8 mm 2 mps 724 mmHg 73%
    17:00 +24°C° 0.8 mm 2 mps 724 mmHg 75%
    18:00 +21°C° 0.6 mm 2 mps 724 mmHg 80%
    19:00 +20°C° 0.6 mm 2 mps 724 mmHg 85%
    20:00 +18°C° 0.6 mm 2 mps 724 mmHg 90%
    21:00 +18°C° 0.3 mm 2 mps 724 mmHg 90%
    22:00 +17°C° 0.3 mm 2 mps 724 mmHg 91%
    23:00 +16°C° 0.3 mm 1 mps 724 mmHg 92%

    28 May, Monday

    Time Temperature Precipitation Wind Pressure Humidity
    00:00 +15°C° 0 mm 1 mps 724 mmHg 92%
    01:00 +15°C° 0 mm 1 mps 724 mmHg 92%
    02:00 +14°C° 0 mm 1 mps 724 mmHg 93%
    03:00 +14°C° 0 mm 1 mps 724 mmHg 93%
    04:00 +14°C° 0 mm 1 mps 724 mmHg 93%
    05:00 +13°C° 0 mm 1 mps 724 mmHg 93%
    06:00 +15°C° 0 mm 2 mps 725 mmHg 89%
    07:00 +16°C° 0 mm 2 mps 725 mmHg 85%
    08:00 +18°C° 0 mm 2 mps 725 mmHg 81%
    09:00 +20°C° 0 mm 2 mps 726 mmHg 74%
    10:00 +21°C° 0 mm 3 mps 726 mmHg 67%
    11:00 +24°C° 0 mm 3 mps 726 mmHg 60%
    12:00 +24°C° 0.2 mm 3 mps 726 mmHg 58%
    13:00 +25°C° 0.2 mm 4 mps 726 mmHg 57%
    14:00 +25°C° 0.2 mm 4 mps 726 mmHg 55%
    15:00 +25°C° 0.1 mm 4 mps 726 mmHg 57%
    16:00 +23°C° 0.1 mm 4 mps 725 mmHg 59%
    17:00 +22°C° 0.1 mm 4 mps 725 mmHg 61%
    18:00 +21°C° 0 mm 4 mps 725 mmHg 67%
    19:00 +19°C° 0 mm 3 mps 725 mmHg 73%
    20:00 +17°C° 0 mm 3 mps 725 mmHg 79%
    21:00 +16°C° 0 mm 2 mps 725 mmHg 81%
    22:00 +15°C° 0 mm 2 mps 725 mmHg 84%
    23:00 +14°C° 0 mm 2 mps 725 mmHg 86%
    Show more